Location: Waco, TX
(31.5480°N, 97.1670°W)
Time: 09:37:40
(UTC-05:00)

ISS - Pass Details

Date: 12 February 2018
Orbit: 402 x 406 km, 51.6° (Epoch: 19 June)

Event Time Altitude Azimuth Distance (km) Brightness Sun altitude
Rises 12:45:20 0° 268° (W) 2,318 0.0 44.9°
Reaches altitude 10° 12:48:20 10° 298° (WNW) 1,458 -1.1 44.9°
Maximum altitude 12:49:55 13° 327° (NNW) 1,299 -1.5 44.9°
Drops below altitude 10° 12:51:29 10° 356° (N) 1,458 -1.3 44.9°
Sets 12:54:29 0° 26° (NNE) 2,317 -0.4 44.9°
